Regional Weather Roundup
Issued by NWS

Home | Current Version | Previous Version | Text Only | Print | Product List | Glossary Off
Versions: 1 2 3 4 5 6 7 8 9 10 11 12 13 14 15 16 17 18 19 20 21 22 23 24 25 26 27 28 29 30 31 32 33 34 35 36 37 38 39 40 41 42 43 44 45 46 47 48 49 50

211
ASUS44 KJAN 302210
RWRMS

MISSISSIPPI HOURLY WEATHER ROUNDUP
NATIONAL WEATHER SERVICE JACKSON MS
500 PM CDT WED JUL 30 2014

NOTE: "FAIR: INDICATES FEW OR NO CLOUDS BELOW 12,000 FEET WITH NO
SIGNIFICANT WEATHER AND/OR OBSTRUCTIONS TO VISIBILITY.

MSZ001>002-007>008-010>013-018>021-025>028-034>036-302300-
NORTHWEST MISSISSIPPI

CITY           SKY/WX    TMP DP  RH WIND       PRES   REMARKS
CLARKSDALE     FAIR      81  59  47 N3        30.08F
CLEVELAND      FAIR      80  67  66 N5        30.07S
GREENWOOD      PTSUNNY   82  60  47 NE7       30.07S
GREENVILLE     CLOUDY    81  63  54 CALM      30.07S
GRENADA        FAIR      81  57  44 CALM      30.07S
OLIVE BRANCH   PTSUNNY   81  57  44 SE5       30.09S
OXFORD         FAIR      79  57  47 N3        30.10S
TUNICA         CLOUDY    81  59  47 W6        30.09S
$$

MSZ003>006-009-014>017-022>024-029>033-037>039-302300-
NORTHEAST MISSISSIPPI

CITY           SKY/WX    TMP DP  RH WIND       PRES   REMARKS
BELMONT        FAIR      78  58  49 NW3       30.08S
COLUMBUS AFB   SUNNY     82  57  42 NW9       30.06S
CORINTH        FAIR      81  57  44 CALM      30.08S
GOLDN TRIANGLE MOSUNNY   84  57  39 NW9       30.07S
STARKVILLE     FAIR      81  55  41 NE8       30.06S
TUPELO         SUNNY     81  56  42 NE9       30.07S
$$

MSZ040-058-302300-
CENTRAL MISSISSIPPI

CITY           SKY/WX    TMP DP  RH WIND       PRES   REMARKS
JACKSON INTL   MOSUNNY   85  56  37 N9        30.05S
JACKSON HAWKNS SUNNY     84  54  35 VRB5      30.06S
MERIDIAN KEY   SUNNY     85  52  32 N8        30.03F
MERIDIAN NAS   MOSUNNY   84  54  35 N9        30.04S
RAYMOND        FAIR      82  77  83 NE3       30.06R HX  91
VICKSBURG      MOSUNNY   84  60  44 NE6       30.05S
$$

MSZ059>079-302300-
SOUTH MISSISSIPPI

CITY           SKY/WX    TMP DP  RH WIND       PRES   REMARKS
BROOKHAVEN     FAIR      82  63  51 N8        30.06S
COLUMBIA       FAIR      84  59  42 VRB7      30.02S
HATTIESBURG    SUNNY     86  55  34 N8        30.03S
MCCOMB         SUNNY     85  57  38 VRB6      30.03S
NATCHEZ        SUNNY     82  61  47 N9        30.05S
PINE BELT      SUNNY     84  55  37 NW6       30.05S
$$

MSZ080>082-302300-
COASTAL MISSISSIPPI

CITY           SKY/WX    TMP DP  RH WIND       PRES   REMARKS
BAY ST LOUIS   SUNNY    N/A N/A N/A CALM      30.00F
BILOXI         SUNNY     84  64  51 SW10      29.99F
PASCAGOULA     SUNNY     86  60  41 NW6       29.99F
GULFPORT       SUNNY     88  60  38 W7        29.99S
$$



USA.gov is the U.S. government's official web portal to all federal, state and local government web resources and services.